Location: Dead Woman Crossing
(43.5369°N, 106.3228°W)
Time: 05:15:10
(UTC+00:00)

Gurwin Techsat 1B - Visible Passes

Search period start: 26 June 2022 00:00
Search period end: 06 July 2022 00:00
Orbit: 811 x 814 km, 98.8° (Epoch: 25 June)

Date Brightness Start Highest point End Pass type
(mag) Time Alt. Az. Time Alt. Az. Time Alt. Az.
26 Jun 9.8 09:03:11 10° NNE 09:08:06 37° E 09:12:08 14° SSE visible
26 Jun 9.7 10:43:17 10° N 10:47:54 31° WNW 10:52:29 10° SW visible
27 Jun 10.4 08:40:47 10° NE 08:44:58 23° E 08:48:53 11° SE visible
27 Jun 9.1 10:20:01 10° N 10:25:06 48° WNW 10:30:04 11° SW visible
28 Jun 10.9 08:18:56 10° ENE 08:21:47 14° E 08:24:37 10° ESE visible
28 Jun 8.6 09:56:56 10° N 10:02:15 75° WNW 10:06:50 14° SSW visible
29 Jun 8.8 09:34:00 10° NNE 09:39:19 70° ESE 09:43:35 16° S visible
30 Jun 9.5 09:11:14 10° NNE 09:16:18 43° E 09:20:19 16° SSE visible
30 Jun 9.9 10:51:36 10° N 10:55:59 27° WNW 11:00:22 10° WSW visible
01 Jul 10.2 08:48:42 10° NE 08:53:13 27° E 08:57:04 13° SSE visible
01 Jul 9.3 10:28:17 10° N 10:33:14 41° WNW 10:38:11 10° SW visible
02 Jul 10.8 08:26:37 10° NE 08:30:03 17° E 08:33:28 10° SE visible
02 Jul 8.7 10:05:08 10° N 10:10:24 64° WNW 10:15:01 14° SSW visible
03 Jul 11.2 08:06:32 10° E 08:06:47 10° E 08:07:02 10° E visible
03 Jul 8.7 09:42:09 10° NNE 09:47:30 81° ESE 09:51:45 16° S visible
04 Jul 9.2 09:19:19 10° NNE 09:24:31 51° E 09:28:30 17° S visible
05 Jul 10.0 08:56:42 10° NNE 09:01:27 32° E 09:05:14 14° SSE visible
05 Jul 9.5 10:36:33 10° N 10:41:21 35° WNW 10:46:08 10° SW visible
